Time,TemperatureF,DewpointF,PressureIn,WindDirection,WindDirectionDegrees,WindSpeedMPH,WindSpeedGustMPH,Humidity,HourlyPrecipIn,Conditions,Clouds,dailyrainin,SoftwareType,DateUTC
2013-06-30 00:05:00,63.8,37.7,29.70,SSW,194,8.0,18.0,38,0.00,,,0.00,Wunderground v.1.15,2013-06-30 04:05:00,
2013-06-30 00:15:00,63.9,36.4,29.70,SE,138,6.0,9.0,36,0.00,,,0.00,Wunderground v.1.15,2013-06-30 04:15:00,
2013-06-30 00:20:00,63.9,37.8,29.70,SSE,153,6.0,6.0,38,0.00,,,0.00,Wunderground v.1.15,2013-06-30 04:20:00,
2013-06-30 00:25:00,63.8,38.4,29.70,SSW,200,6.0,9.0,39,0.00,,,0.00,Wunderground v.1.15,2013-06-30 04:25:00,
2013-06-30 00:35:00,63.6,40.7,29.70,SSE,161,8.0,9.0,43,0.00,,,0.00,Wunderground v.1.15,2013-06-30 04:35:00,
2013-06-30 00:45:00,63.4,40.5,29.70,SSW,199,7.0,10.0,43,0.00,,,0.00,Wunderground v.1.15,2013-06-30 04:45:00,
2013-06-30 00:50:00,63.3,40.4,29.70,South,190,7.0,7.0,43,0.00,,,0.00,Wunderground v.1.15,2013-06-30 04:50:00,
2013-06-30 01:00:00,63.1,39.6,29.70,SSW,194,6.0,6.0,42,0.00,,,0.00,Wunderground v.1.15,2013-06-30 05:00:00,
2013-06-30 01:10:00,63.2,35.8,29.70,SSW,199,6.0,6.0,36,0.00,,,0.00,Wunderground v.1.15,2013-06-30 05:10:00,
2013-06-30 01:15:00,63.3,33.7,29.70,South,187,6.0,6.0,33,0.00,,,0.00,Wunderground v.1.15,2013-06-30 05:15:00,
2013-06-30 01:20:00,63.3,33.7,29.71,SSW,199,6.0,6.0,33,0.00,,,0.00,Wunderground v.1.15,2013-06-30 05:20:00,
2013-06-30 01:30:00,63.2,33.6,29.71,South,190,8.0,8.0,33,0.00,,,0.00,Wunderground v.1.15,2013-06-30 05:30:00,
2013-06-30 01:40:00,62.9,35.5,29.70,SSW,195,7.0,7.0,36,0.00,,,0.00,Wunderground v.1.15,2013-06-30 05:40:00,
2013-06-30 01:50:00,62.9,33.3,29.70,South,183,6.0,6.0,33,0.00,,,0.00,Wunderground v.1.15,2013-06-30 05:50:00,
2013-06-30 01:55:00,63.0,32.7,29.70,SSW,196,6.0,6.0,32,0.00,,,0.00,Wunderground v.1.15,2013-06-30 05:55:00,
2013-06-30 02:00:00,63.1,30.3,29.70,South,180,7.0,7.0,29,0.00,,,0.00,Wunderground v.1.15,2013-06-30 06:00:00,
2013-06-30 02:05:00,63.1,30.3,29.71,South,188,7.0,17.0,29,0.00,,,0.00,Wunderground v.1.15,2013-06-30 06:05:00,
2013-06-30 02:15:00,62.7,33.9,29.71,South,175,7.0,17.0,34,0.00,,,0.00,Wunderground v.1.15,2013-06-30 06:15:00,
2013-06-30 02:25:00,62.3,37.0,29.71,SSW,207,7.0,17.0,39,0.00,,,0.00,Wunderground v.1.15,2013-06-30 06:25:00,
2013-06-30 02:30:00,62.1,37.5,29.71,SSE,165,7.0,17.0,40,0.00,,,0.00,Wunderground v.1.15,2013-06-30 06:30:00,
2013-06-30 02:40:00,62.0,35.4,29.70,SSE,161,5.0,17.0,37,0.00,,,0.00,Wunderground v.1.15,2013-06-30 06:40:00,
2013-06-30 02:45:00,62.2,31.2,29.70,SSW,199,5.0,17.0,31,0.00,,,0.00,Wunderground v.1.15,2013-06-30 06:45:00,
2013-06-30 02:50:00,62.4,28.8,29.70,South,183,5.0,5.0,28,0.00,,,0.00,Wunderground v.1.15,2013-06-30 06:50:00,
2013-06-30 03:00:00,62.6,28.1,29.71,South,190,6.0,17.0,27,0.00,,,0.00,Wunderground v.1.15,2013-06-30 07:00:00,
2013-06-30 03:10:00,62.4,28.8,29.72,South,191,6.0,6.0,28,0.00,,,0.00,Wunderground v.1.15,2013-06-30 07:10:00,
2013-06-30 03:20:00,62.3,28.7,29.72,South,176,6.0,17.0,28,0.00,,,0.00,Wunderground v.1.15,2013-06-30 07:20:00,
2013-06-30 03:30:00,62.5,27.1,29.71,South,177,6.0,17.0,26,0.00,,,0.00,Wunderground v.1.15,2013-06-30 07:30:00,
2013-06-30 03:35:00,62.6,27.2,29.71,South,175,6.0,17.0,26,0.00,,,0.00,Wunderground v.1.15,2013-06-30 07:35:00,
2013-06-30 03:45:00,62.7,26.3,29.72,SSE,168,5.0,17.0,25,0.00,,,0.00,Wunderground v.1.15,2013-06-30 07:45:00,
2013-06-30 03:55:00,62.9,26.5,29.72,SSE,167,5.0,17.0,25,0.00,,,0.00,Wunderground v.1.15,2013-06-30 07:55:00,
2013-06-30 04:05:00,62.7,27.3,29.72,SSE,148,7.0,8.0,26,0.00,,,0.00,Wunderground v.1.15,2013-06-30 08:05:00,
2013-06-30 04:15:00,62.5,28.9,29.72,SSW,192,6.0,10.0,28,0.00,,,0.00,Wunderground v.1.15,2013-06-30 08:15:00,
2013-06-30 04:20:00,62.3,29.6,29.72,SSE,163,6.0,17.0,29,0.00,,,0.00,Wunderground v.1.15,2013-06-30 08:20:00,
2013-06-30 04:25:00,62.1,30.3,29.72,South,179,7.0,17.0,30,0.00,,,0.00,Wunderground v.1.15,2013-06-30 08:25:00,
2013-06-30 04:35:00,62.1,29.4,29.72,South,184,5.0,17.0,29,0.00,,,0.00,Wunderground v.1.15,2013-06-30 08:35:00,
2013-06-30 04:40:00,62.2,28.7,29.72,SSE,153,5.0,17.0,28,0.00,,,0.00,Wunderground v.1.15,2013-06-30 08:40:00,
2013-06-30 04:50:00,62.2,27.8,29.73,SSE,165,6.0,17.0,27,0.00,,,0.00,Wunderground v.1.15,2013-06-30 08:50:00,
2013-06-30 05:00:00,62.2,27.8,29.73,South,186,8.0,8.0,27,0.00,,,0.00,Wunderground v.1.15,2013-06-30 09:00:00,
2013-06-30 05:10:00,62.0,29.3,29.73,South,178,6.0,6.0,29,0.00,,,0.00,Wunderground v.1.15,2013-06-30 09:10:00,
2013-06-30 05:15:00,61.8,29.2,29.74,SSW,207,6.0,17.0,29,0.00,,,0.00,Wunderground v.1.15,2013-06-30 09:15:00,
2013-06-30 05:25:00,61.9,28.4,29.74,South,189,5.0,17.0,28,0.00,,,0.00,Wunderground v.1.15,2013-06-30 09:25:00,
2013-06-30 05:35:00,62.1,27.7,29.74,SSW,204,3.0,17.0,27,0.00,,,0.00,Wunderground v.1.15,2013-06-30 09:35:00,
2013-06-30 05:40:00,62.1,27.7,29.74,South,187,3.0,17.0,27,0.00,,,0.00,Wunderground v.1.15,2013-06-30 09:40:00,
2013-06-30 05:45:00,62.2,27.8,29.75,SSW,203,3.0,17.0,27,0.00,,,0.00,Wunderground v.1.15,2013-06-30 09:45:00,
2013-06-30 05:55:00,62.0,28.5,29.74,SSE,164,4.0,5.0,28,0.00,,,0.00,Wunderground v.1.15,2013-06-30 09:55:00,
2013-06-30 06:00:00,61.8,29.2,29.74,SSE,148,5.0,17.0,29,0.00,,,0.00,Wunderground v.1.15,2013-06-30 10:00:00,
2013-06-30 06:05:00,61.8,29.2,29.75,South,182,5.0,17.0,29,0.00,,,0.00,Wunderground v.1.15,2013-06-30 10:05:00,
2013-06-30 06:15:00,61.5,31.3,29.75,South,173,4.0,17.0,32,0.00,,,0.00,Wunderground v.1.15,2013-06-30 10:15:00,
2013-06-30 06:25:00,61.3,30.4,29.75,South,186,4.0,17.0,31,0.00,,,0.00,Wunderground v.1.15,2013-06-30 10:25:00,
2013-06-30 06:35:00,61.6,29.0,29.75,SW,215,4.0,17.0,29,0.00,,,0.00,Wunderground v.1.15,2013-06-30 10:35:00,
2013-06-30 06:40:00,61.7,28.2,29.76,SSW,202,5.0,5.0,28,0.00,,,0.00,Wunderground v.1.15,2013-06-30 10:40:00,
2013-06-30 06:50:00,62.1,27.7,29.76,SSW,202,4.0,4.0,27,0.00,,,0.00,Wunderground v.1.15,2013-06-30 10:50:00,
2013-06-30 06:55:00,62.1,27.7,29.76,SSE,159,4.0,6.0,27,0.00,,,0.00,Wunderground v.1.15,2013-06-30 10:55:00,
2013-06-30 07:00:00,62.1,27.7,29.76,SSW,203,4.0,17.0,27,0.00,,,0.00,Wunderground v.1.15,2013-06-30 11:00:00,
2013-06-30 07:10:00,62.1,28.6,29.76,SSW,196,3.0,3.0,28,0.00,,,0.00,Wunderground v.1.15,2013-06-30 11:10:00,
2013-06-30 07:20:00,62.3,28.7,29.77,SE,134,2.0,17.0,28,0.00,,,0.00,Wunderground v.1.15,2013-06-30 11:20:00,
2013-06-30 07:30:00,62.4,27.9,29.77,SSE,167,4.0,17.0,27,0.00,,,0.00,Wunderground v.1.15,2013-06-30 11:30:00,
2013-06-30 07:35:00,62.5,28.9,29.78,SSW,194,5.0,17.0,28,0.00,,,0.00,Wunderground v.1.15,2013-06-30 11:35:00,
2013-06-30 07:45:00,62.7,29.1,29.78,SSE,159,6.0,7.0,28,0.00,,,0.00,Wunderground v.1.15,2013-06-30 11:45:00,
2013-06-30 07:50:00,62.6,29.0,29.78,South,191,6.0,6.0,28,0.00,,,0.00,Wunderground v.1.15,2013-06-30 11:50:00,
2013-06-30 08:00:00,62.7,30.0,29.79,SE,137,6.0,17.0,29,0.00,,,0.00,Wunderground v.1.15,2013-06-30 12:00:00,
2013-06-30 08:05:00,62.8,30.9,29.79,South,176,6.0,17.0,30,0.00,,,0.00,Wunderground v.1.15,2013-06-30 12:05:00,
2013-06-30 08:15:00,62.9,31.0,29.79,SSE,160,5.0,17.0,30,0.00,,,0.00,Wunderground v.1.15,2013-06-30 12:15:00,
2013-06-30 08:25:00,63.3,30.5,29.79,SSW,203,5.0,17.0,29,0.00,,,0.00,Wunderground v.1.15,2013-06-30 12:25:00,
2013-06-30 08:35:00,63.6,32.4,29.80,SSW,200,4.0,17.0,31,0.00,,,0.00,Wunderground v.1.15,2013-06-30 12:35:00,
2013-06-30 08:40:00,64.0,31.9,29.80,SSE,167,4.0,17.0,30,0.00,,,0.00,Wunderground v.1.15,2013-06-30 12:40:00,
2013-06-30 08:50:00,64.1,36.6,29.81,South,172,5.0,17.0,36,0.00,,,0.00,Wunderground v.1.15,2013-06-30 12:50:00,
2013-06-30 09:00:00,63.5,43.4,29.81,SSE,149,6.0,6.0,48,0.00,,,0.00,Wunderground v.1.15,2013-06-30 13:00:00,
2013-06-30 09:10:00,63.7,43.6,29.81,South,185,6.0,6.0,48,0.00,,,0.00,Wunderground v.1.15,2013-06-30 13:10:00,
2013-06-30 09:20:00,64.3,43.1,29.81,SSE,164,5.0,17.0,46,0.00,,,0.00,Wunderground v.1.15,2013-06-30 13:20:00,
2013-06-30 09:30:00,65.1,43.2,29.81,SSE,167,5.0,17.0,45,0.00,,,0.00,Wunderground v.1.15,2013-06-30 13:30:00,
2013-06-30 09:40:00,66.0,44.0,29.81,SSW,200,5.0,5.0,45,0.00,,,0.00,Wunderground v.1.15,2013-06-30 13:40:00,
2013-06-30 09:45:00,66.8,44.2,29.81,South,190,4.0,6.0,44,0.00,,,0.00,Wunderground v.1.15,2013-06-30 13:45:00,
2013-06-30 09:50:00,67.4,46.5,29.82,South,173,4.0,17.0,47,0.00,,,0.00,Wunderground v.1.15,2013-06-30 13:50:00,
2013-06-30 09:55:00,66.7,57.8,29.82,SSE,168,5.0,17.0,73,0.00,,,0.00,Wunderground v.1.15,2013-06-30 13:55:00,
2013-06-30 10:05:00,66.4,59.3,29.82,SE,136,7.0,17.0,78,0.00,,,0.00,Wunderground v.1.15,2013-06-30 14:05:00,
2013-06-30 10:15:00,66.5,60.8,29.82,SSE,159,6.0,17.0,82,0.00,,,0.00,Wunderground v.1.15,2013-06-30 14:15:00,
2013-06-30 10:25:00,66.6,61.9,29.82,SE,146,6.0,17.0,85,0.00,,,0.00,Wunderground v.1.15,2013-06-30 14:25:00,
2013-06-30 10:35:00,66.8,63.1,29.82,SSE,159,5.0,17.0,88,0.00,,,0.00,Wunderground v.1.15,2013-06-30 14:35:00,
2013-06-30 10:40:00,66.9,63.2,29.81,SE,126,6.0,17.0,88,0.00,,,0.00,Wunderground v.1.15,2013-06-30 14:40:00,
2013-06-30 10:50:00,67.4,64.0,29.81,SE,126,6.0,17.0,89,0.00,,,0.00,Wunderground v.1.15,2013-06-30 14:50:00,
2013-06-30 10:55:00,67.5,64.1,29.82,SSE,155,7.0,17.0,89,0.00,,,0.00,Wunderground v.1.15,2013-06-30 14:55:00,
2013-06-30 11:05:00,67.7,64.7,29.82,ESE,115,8.0,17.0,90,0.00,,,0.00,Wunderground v.1.15,2013-06-30 15:05:00,
2013-06-30 11:15:00,68.5,65.4,29.82,South,187,7.0,17.0,90,0.00,,,0.00,Wunderground v.1.15,2013-06-30 15:15:00,
2013-06-30 11:20:00,68.4,65.7,29.82,SE,130,6.0,6.0,91,0.00,,,0.00,Wunderground v.1.15,2013-06-30 15:20:00,
2013-06-30 11:30:00,69.0,65.9,29.82,ESE,123,6.0,17.0,90,0.00,,,0.00,Wunderground v.1.15,2013-06-30 15:30:00,
2013-06-30 11:40:00,70.0,66.9,29.82,SSE,161,7.0,17.0,90,0.00,,,0.00,Wunderground v.1.15,2013-06-30 15:40:00,
2013-06-30 11:45:00,70.1,67.0,29.83,SSE,154,6.0,17.0,90,0.00,,,0.00,Wunderground v.1.15,2013-06-30 15:45:00,
2013-06-30 11:55:00,68.5,65.4,29.82,SSE,153,9.0,17.0,90,0.00,,,0.00,Wunderground v.1.15,2013-06-30 15:55:00,
2013-06-30 12:05:00,67.3,64.3,29.83,South,190,9.0,17.0,90,0.00,,,0.00,Wunderground v.1.15,2013-06-30 16:05:00,
2013-06-30 12:15:00,66.6,63.3,29.83,South,187,10.0,10.0,89,0.00,,,0.00,Wunderground v.1.15,2013-06-30 16:15:00,
2013-06-30 12:25:00,67.7,64.3,29.83,SSE,163,8.0,17.0,89,0.00,,,0.00,Wunderground v.1.15,2013-06-30 16:25:00,
2013-06-30 12:35:00,67.9,64.9,29.83,SSW,198,10.0,17.0,90,0.00,,,0.00,Wunderground v.1.15,2013-06-30 16:35:00,
2013-06-30 12:45:00,67.7,64.7,29.83,SE,133,8.0,17.0,90,0.00,,,0.00,Wunderground v.1.15,2013-06-30 16:45:00,
2013-06-30 12:50:00,67.1,64.1,29.83,SE,144,9.0,17.0,90,0.00,,,0.00,Wunderground v.1.15,2013-06-30 16:50:00,
2013-06-30 13:00:00,66.9,63.9,29.83,SSE,150,10.0,10.0,90,0.00,,,0.00,Wunderground v.1.15,2013-06-30 17:00:00,
2013-06-30 13:10:00,67.2,63.5,29.84,South,173,10.0,10.0,88,0.00,,,0.00,Wunderground v.1.15,2013-06-30 17:10:00,
2013-06-30 13:20:00,67.3,63.3,29.84,SSW,202,11.0,11.0,87,0.00,,,0.00,Wunderground v.1.15,2013-06-30 17:20:00,
2013-06-30 13:30:00,67.2,62.9,29.83,South,179,11.0,11.0,86,0.00,,,0.00,Wunderground v.1.15,2013-06-30 17:30:00,
2013-06-30 13:40:00,67.4,63.7,29.84,South,177,10.0,17.0,88,0.00,,,0.00,Wunderground v.1.15,2013-06-30 17:40:00,
2013-06-30 13:50:00,66.7,63.0,29.84,SSW,195,10.0,10.0,88,0.00,,,0.00,Wunderground v.1.15,2013-06-30 17:50:00,
2013-06-30 13:55:00,66.6,62.9,29.84,SSE,153,9.0,17.0,88,0.00,,,0.00,Wunderground v.1.15,2013-06-30 17:55:00,
2013-06-30 14:05:00,66.8,63.5,29.84,South,169,9.0,12.0,89,0.00,,,0.00,Wunderground v.1.15,2013-06-30 18:05:00,
2013-06-30 14:15:00,67.2,63.2,29.84,South,173,9.0,17.0,87,0.00,,,0.00,Wunderground v.1.15,2013-06-30 18:15:00,
2013-06-30 14:25:00,67.5,63.8,29.84,South,191,10.0,17.0,88,0.00,,,0.00,Wunderground v.1.15,2013-06-30 18:25:00,
2013-06-30 14:35:00,67.5,64.1,29.84,SSW,194,8.0,17.0,89,0.00,,,0.00,Wunderground v.1.15,2013-06-30 18:35:00,
2013-06-30 14:40:00,67.5,64.1,29.84,South,190,7.0,17.0,89,0.00,,,0.00,Wunderground v.1.15,2013-06-30 18:40:00,
2013-06-30 14:45:00,67.2,63.8,29.84,SSW,202,9.0,17.0,89,0.00,,,0.00,Wunderground v.1.15,2013-06-30 18:45:00,
2013-06-30 14:50:00,66.8,63.1,29.84,South,178,10.0,10.0,88,0.00,,,0.00,Wunderground v.1.15,2013-06-30 18:50:00,
2013-06-30 15:00:00,66.8,63.1,29.84,SSE,166,9.0,17.0,88,0.00,,,0.00,Wunderground v.1.15,2013-06-30 19:00:00,
2013-06-30 15:10:00,66.6,62.9,29.84,SSE,163,8.0,17.0,88,0.00,,,0.00,Wunderground v.1.15,2013-06-30 19:10:00,
2013-06-30 15:20:00,66.6,62.3,29.84,SSE,161,7.0,17.0,86,0.00,,,0.00,Wunderground v.1.15,2013-06-30 19:20:00,
2013-06-30 15:30:00,66.6,61.9,29.85,South,187,7.0,7.0,85,0.00,,,0.00,Wunderground v.1.15,2013-06-30 19:30:00,
2013-06-30 15:40:00,67.3,62.0,29.85,South,170,7.0,7.0,83,0.00,,,0.00,Wunderground v.1.15,2013-06-30 19:40:00,
2013-06-30 15:45:00,67.5,63.8,29.84,SSW,196,7.0,17.0,88,0.00,,,0.00,Wunderground v.1.15,2013-06-30 19:45:00,
2013-06-30 15:50:00,67.7,63.7,29.85,South,186,7.0,7.0,87,0.00,,,0.00,Wunderground v.1.15,2013-06-30 19:50:00,
2013-06-30 15:55:00,68.0,63.7,29.84,SSE,157,6.0,17.0,86,0.00,,,0.00,Wunderground v.1.15,2013-06-30 19:55:00,
2013-06-30 16:05:00,69.1,66.0,29.85,SSW,200,6.0,17.0,90,0.00,,,0.00,Wunderground v.1.15,2013-06-30 20:05:00,
2013-06-30 16:15:00,70.0,66.9,29.85,SSE,160,5.0,17.0,90,0.00,,,0.00,Wunderground v.1.15,2013-06-30 20:15:00,
2013-06-30 16:25:00,69.6,66.5,29.85,SSE,163,7.0,17.0,90,0.00,,,0.00,Wunderground v.1.15,2013-06-30 20:25:00,
2013-06-30 16:35:00,68.9,65.8,29.85,SSE,148,7.0,17.0,90,0.00,,,0.00,Wunderground v.1.15,2013-06-30 20:35:00,
2013-06-30 16:45:00,67.7,64.7,29.85,SE,144,7.0,17.0,90,0.00,,,0.00,Wunderground v.1.15,2013-06-30 20:45:00,
2013-06-30 16:50:00,67.3,64.3,29.85,SSE,147,7.0,7.0,90,0.00,,,0.00,Wunderground v.1.15,2013-06-30 20:50:00,
2013-06-30 17:00:00,67.1,63.4,29.85,South,177,6.0,17.0,88,0.00,,,0.00,Wunderground v.1.15,2013-06-30 21:00:00,
2013-06-30 17:05:00,66.9,63.2,29.86,SSE,168,7.0,17.0,88,0.00,,,0.00,Wunderground v.1.15,2013-06-30 21:05:00,
2013-06-30 17:15:00,66.5,61.5,29.85,South,179,9.0,17.0,84,0.00,,,0.00,Wunderground v.1.15,2013-06-30 21:15:00,
2013-06-30 17:20:00,66.4,60.7,29.86,ESE,121,8.0,8.0,82,0.00,,,0.00,Wunderground v.1.15,2013-06-30 21:20:00,
2013-06-30 17:25:00,66.2,60.2,29.85,South,185,9.0,9.0,81,0.00,,,0.00,Wunderground v.1.15,2013-06-30 21:25:00,
2013-06-30 17:30:00,66.0,60.0,29.85,SSE,150,9.0,17.0,81,0.00,,,0.00,Wunderground v.1.15,2013-06-30 21:30:00,
2013-06-30 17:40:00,65.8,59.1,29.85,SSE,164,8.0,8.0,79,0.00,,,0.00,Wunderground v.1.15,2013-06-30 21:40:00,
2013-06-30 17:50:00,65.7,58.7,29.86,SE,140,7.0,17.0,78,0.00,,,0.00,Wunderground v.1.15,2013-06-30 21:50:00,
2013-06-30 17:55:00,65.6,58.2,29.86,SSE,153,8.0,17.0,77,0.00,,,0.00,Wunderground v.1.15,2013-06-30 21:55:00,
2013-06-30 18:05:00,65.5,57.7,29.87,South,187,6.0,17.0,76,0.00,,,0.00,Wunderground v.1.15,2013-06-30 22:05:00,
2013-06-30 18:15:00,65.3,56.8,29.87,SSE,164,7.0,17.0,74,0.00,,,0.00,Wunderground v.1.15,2013-06-30 22:15:00,
2013-06-30 18:25:00,65.6,55.9,29.88,South,182,6.0,17.0,71,0.00,,,0.00,Wunderground v.1.15,2013-06-30 22:25:00,
2013-06-30 18:35:00,66.1,57.9,29.88,SSE,154,6.0,17.0,75,0.00,,,0.00,Wunderground v.1.15,2013-06-30 22:35:00,
2013-06-30 18:40:00,66.4,58.6,29.88,SSE,159,4.0,17.0,76,0.00,,,0.00,Wunderground v.1.15,2013-06-30 22:40:00,
2013-06-30 18:45:00,66.5,60.5,29.89,SE,137,5.0,17.0,81,0.00,,,0.00,Wunderground v.1.15,2013-06-30 22:45:00,
2013-06-30 18:50:00,66.3,61.3,29.89,South,170,6.0,17.0,84,0.00,,,0.00,Wunderground v.1.15,2013-06-30 22:50:00,
2013-06-30 19:00:00,65.8,60.5,29.89,SE,145,7.0,17.0,83,0.00,,,0.00,Wunderground v.1.15,2013-06-30 23:00:00,
2013-06-30 19:10:00,65.5,58.5,29.89,SSE,150,7.0,7.0,78,0.00,,,0.00,Wunderground v.1.15,2013-06-30 23:10:00,
2013-06-30 19:20:00,65.5,57.4,29.89,South,175,5.0,5.0,75,0.00,,,0.00,Wunderground v.1.15,2013-06-30 23:20:00,
2013-06-30 19:30:00,65.4,56.5,29.89,South,175,4.0,17.0,73,0.00,,,0.00,Wunderground v.1.15,2013-06-30 23:30:00,
2013-06-30 19:40:00,65.5,54.7,29.89,SSE,165,6.0,6.0,68,0.00,,,0.00,Wunderground v.1.15,2013-06-30 23:40:00,
2013-06-30 19:50:00,65.5,53.4,29.89,South,172,6.0,17.0,65,0.00,,,0.00,Wunderground v.1.15,2013-06-30 23:50:00,
2013-06-30 19:55:00,65.4,52.9,29.89,SSE,164,5.0,17.0,64,0.00,,,0.00,Wunderground v.1.15,2013-06-30 23:55:00,
2013-06-30 20:05:00,65.4,52.0,29.89,South,178,3.0,17.0,62,0.00,,,0.00,Wunderground v.1.15,2013-07-01 00:05:00,
2013-06-30 20:15:00,65.5,49.9,29.90,SSE,159,3.0,17.0,57,0.00,,,0.00,Wunderground v.1.15,2013-07-01 00:15:00,
2013-06-30 20:20:00,65.6,49.0,29.90,South,188,3.0,3.0,55,0.00,,,0.00,Wunderground v.1.15,2013-07-01 00:20:00,
2013-06-30 20:25:00,65.6,48.0,29.90,South,188,3.0,4.0,53,0.00,,,0.00,Wunderground v.1.15,2013-07-01 00:25:00,
2013-06-30 20:30:00,65.7,48.6,29.90,South,178,4.0,17.0,54,0.00,,,0.00,Wunderground v.1.15,2013-07-01 00:30:00,
2013-06-30 20:35:00,65.7,48.6,29.90,SSW,192,4.0,17.0,54,0.00,,,0.00,Wunderground v.1.15,2013-07-01 00:35:00,
2013-06-30 20:40:00,65.7,48.6,29.90,SSE,164,3.0,17.0,54,0.00,,,0.00,Wunderground v.1.15,2013-07-01 00:40:00,
2013-06-30 20:45:00,65.7,48.6,29.90,South,188,2.0,17.0,54,0.00,,,0.00,Wunderground v.1.15,2013-07-01 00:45:00,
2013-06-30 20:55:00,65.6,49.0,29.91,South,172,2.0,17.0,55,0.00,,,0.00,Wunderground v.1.15,2013-07-01 00:55:00,
2013-06-30 21:00:00,65.6,49.0,29.91,South,190,2.0,17.0,55,0.00,,,0.00,Wunderground v.1.15,2013-07-01 01:00:00,
2013-06-30 21:10:00,65.4,51.1,29.90,SSE,162,5.0,17.0,60,0.00,,,0.00,Wunderground v.1.15,2013-07-01 01:10:00,
2013-06-30 21:20:00,65.1,53.5,29.91,SSW,196,5.0,5.0,66,0.00,,,0.00,Wunderground v.1.15,2013-07-01 01:20:00,
2013-06-30 21:30:00,64.9,54.9,29.91,South,172,6.0,17.0,70,0.00,,,0.00,Wunderground v.1.15,2013-07-01 01:30:00,
2013-06-30 21:40:00,64.8,56.7,29.91,SW,234,6.0,6.0,75,0.00,,,0.00,Wunderground v.1.15,2013-07-01 01:40:00,
2013-06-30 21:45:00,64.7,57.7,29.92,South,169,4.0,17.0,78,0.00,,,0.00,Wunderground v.1.15,2013-07-01 01:45:00,
2013-06-30 21:50:00,64.6,58.3,29.92,SSW,210,3.0,3.0,80,0.00,,,0.00,Wunderground v.1.15,2013-07-01 01:50:00,
2013-06-30 21:55:00,64.5,58.5,29.92,SW,223,2.0,17.0,81,0.00,,,0.00,Wunderground v.1.15,2013-07-01 01:55:00,
2013-06-30 22:05:00,64.4,57.7,29.93,SSW,200,1.0,17.0,79,0.00,,,0.00,Wunderground v.1.15,2013-07-01 02:05:00,
2013-06-30 22:15:00,64.5,57.1,29.93,SE,140,1.0,17.0,77,0.00,,,0.00,Wunderground v.1.15,2013-07-01 02:15:00,
2013-06-30 22:25:00,64.5,58.2,29.93,South,190,2.0,17.0,80,0.00,,,0.00,Wunderground v.1.15,2013-07-01 02:25:00,
2013-06-30 22:35:00,64.5,58.5,29.93,SSW,212,3.0,17.0,81,0.00,,,0.00,Wunderground v.1.15,2013-07-01 02:35:00,
2013-06-30 22:40:00,64.5,58.9,29.92,SSE,150,2.0,17.0,82,0.00,,,0.00,Wunderground v.1.15,2013-07-01 02:40:00,
2013-06-30 22:50:00,64.5,58.9,29.92,SSE,162,2.0,17.0,82,0.00,,,0.00,Wunderground v.1.15,2013-07-01 02:50:00,
2013-06-30 23:00:00,64.7,58.7,29.91,South,172,5.0,5.0,81,0.00,,,0.00,Wunderground v.1.15,2013-07-01 03:00:00,
2013-06-30 23:05:00,64.9,59.6,29.91,SW,219,5.0,17.0,83,0.00,,,0.00,Wunderground v.1.15,2013-07-01 03:05:00,
2013-06-30 23:10:00,65.0,59.7,29.91,SSW,192,4.0,17.0,83,0.00,,,0.00,Wunderground v.1.15,2013-07-01 03:10:00,
2013-06-30 23:20:00,65.3,60.3,29.92,SSE,162,6.0,17.0,84,0.00,,,0.00,Wunderground v.1.15,2013-07-01 03:20:00,
2013-06-30 23:25:00,65.2,60.6,29.91,SSE,156,6.0,17.0,85,0.00,,,0.00,Wunderground v.1.15,2013-07-01 03:25:00,
2013-06-30 23:30:00,65.1,60.5,29.91,South,182,6.0,6.0,85,0.00,,,0.00,Wunderground v.1.15,2013-07-01 03:30:00,
2013-06-30 23:40:00,64.9,59.6,29.91,South,180,5.0,5.0,83,0.00,,,0.00,Wunderground v.1.15,2013-07-01 03:40:00,
2013-06-30 23:45:00,64.8,59.2,29.92,South,183,5.0,6.0,82,0.00,,,0.00,Wunderground v.1.15,2013-07-01 03:45:00,
2013-06-30 23:55:00,64.5,58.9,29.92,South,186,5.0,17.0,82,0.00,,,0.00,Wunderground v.1.15,2013-07-01 03:55:00,